Osceola Municipal, IA

4:34 AM CST on January 22, 2018 (GMT -0600)
Osceola Municipal

Weather History for KI75 - May, 2014

Change the Weather History Date:

Thursday, May 1, 2014

  Actual Average (KCNC) Record (KCNC)
Temperature  
Mean Temperature 45 °F -  
Max Temperature 49 °F 68 °F 89 °F (1965)
Min Temperature 41 °F 43 °F 26 °F (1950)
Degree Days  
Heating Degree Days 20    
Moisture  
Dew Point 39 °F    
Average Humidity 80    
Maximum Humidity 90    
Minimum Humidity 72    
Precipitation  
Precipitation 0.00 in - - ()
Sea Level Pressure  
Sea Level Pressure 29.88 in    
Wind  
Wind Speed 13 mph (WNW)    
Max Wind Speed 18 mph    
Max Gust Speed 28 mph    
Visibility 10 miles    
Events      
Averages and records for this station are not official NWS values.
T = Trace of Precipitation, MM = Missing Value Source: NWS Daily Summary

Daily Weather History Graph

Daily Weather History Graph

Search for Another Location

Airport or City:

Trip Planner

Search our weather history database for the weather conditions in past years. The results will help you decide how hot, cold, wet, or windy it might be!

Date:

Astronomy

May. 01, 2014 Rise Set
Actual Time 6:12 AM CDT 8:11 PM CDT
Civil Twilight 5:42 AM CDT 8:41 PM CDT
Nautical Twilight 5:06 AM CDT 9:18 PM CDT
Astronomical Twilight 4:26 AM CDT 9:58 PM CDT
Moon 8:00 AM CDT (5/1) 10:46 PM CDT (5/1)
Length of Visible Light 14h 58m
Length of Day
13h 59m
Waxing Crescent, 7% of the Moon is Illuminated
May 1
Waxing Crescent
May 6
First Quarter
May 14
Full
May 21
Last Quarter
May 28
New

Hourly Weather History & Observations

Time (CDT) Temp. Windchill Dew Point Humidity Pressure Visibility Wind Dir Wind Speed Gust Speed Precip Events Conditions
12:15 AM 42.4 °F 36.1 °F 39.7 °F 90% 29.85 in 10.0 mi West 11.5 mph - N/A   Overcast
12:35 AM 42.8 °F 36.2 °F 39.9 °F 90% 29.85 in 10.0 mi West 12.7 mph 16.1 mph N/A   Overcast
1:15 AM 42.4 °F 35.3 °F 39.2 °F 88% 29.84 in 10.0 mi West 13.8 mph 19.6 mph N/A   Overcast
1:35 AM 42.3 °F 35.5 °F 38.7 °F 87% 29.84 in 10.0 mi West 12.7 mph - N/A   Overcast
1:55 AM 42.3 °F 35.5 °F 38.3 °F 86% 29.83 in 10.0 mi West 12.7 mph 17.3 mph N/A   Overcast
2:15 AM 42.1 °F 35.2 °F 38.5 °F 87% 29.83 in 10.0 mi West 12.7 mph - N/A   Overcast
2:35 AM 42.3 °F 35.1 °F 38.7 °F 87% 29.82 in 10.0 mi West 13.8 mph - N/A   Overcast
2:55 AM 42.1 °F 35.7 °F 37.8 °F 85% 29.82 in 10.0 mi West 11.5 mph - N/A   Overcast
3:15 AM 41.9 °F 34.3 °F 37.9 °F 86% 29.82 in 10.0 mi West 15.0 mph - N/A   Overcast
3:35 AM 41.9 °F 35.0 °F 38.3 °F 87% 29.82 in 10.0 mi West 12.7 mph 17.3 mph N/A   Overcast
4:15 AM 42.1 °F 35.7 °F 38.3 °F 86% 29.82 in 10.0 mi West 11.5 mph 17.3 mph N/A   Overcast
4:35 AM 41.9 °F 35.4 °F 38.1 °F 86% 29.82 in 10.0 mi West 11.5 mph - N/A   Overcast
5:15 AM 41.9 °F 35.4 °F 38.3 °F 87% 29.82 in 10.0 mi West 11.5 mph - N/A   Overcast
5:35 AM 41.9 °F 35.4 °F 38.3 °F 87% 29.82 in 10.0 mi West 11.5 mph - N/A   Overcast
5:55 AM 41.9 °F 35.4 °F 38.5 °F 88% 29.82 in 10.0 mi West 11.5 mph - N/A   Overcast
6:15 AM 41.9 °F 34.6 °F 38.3 °F 87% 29.82 in 10.0 mi West 13.8 mph 18.4 mph N/A   Overcast
6:35 AM 41.9 °F 35.0 °F 38.7 °F 88% 29.82 in 7.0 mi West 12.7 mph - N/A   Overcast
6:55 AM 42.1 °F 35.2 °F 38.5 °F 87% 29.82 in 10.0 mi West 12.7 mph 18.4 mph N/A   Overcast
7:15 AM 42.3 °F 35.1 °F 38.7 °F 87% 29.83 in 10.0 mi West 13.8 mph 17.3 mph N/A   Overcast
7:35 AM 42.3 °F 35.1 °F 38.3 °F 86% 29.83 in 10.0 mi West 13.8 mph - N/A   Overcast
7:55 AM 42.4 °F 36.1 °F 38.3 °F 85% 29.83 in 10.0 mi West 11.5 mph 18.4 mph N/A   Overcast
8:15 AM 43.0 °F 35.7 °F 38.7 °F 85% 29.83 in 10.0 mi West 15.0 mph - N/A   Overcast
8:35 AM 43.2 °F 35.9 °F 38.1 °F 82% 29.83 in 10.0 mi WNW 15.0 mph 20.7 mph N/A   Overcast
8:55 AM 43.3 °F 37.2 °F 38.5 °F 83% 29.84 in 10.0 mi WNW 11.5 mph 17.3 mph N/A   Overcast
9:15 AM 44.4 °F 37.9 °F 38.8 °F 81% 29.84 in 10.0 mi WNW 13.8 mph 18.4 mph N/A   Overcast
9:55 AM 45.1 °F 37.9 °F 38.7 °F 78% 29.84 in 10.0 mi WNW 17.3 mph 24.2 mph N/A   Overcast
10:15 AM 45.5 °F 38.6 °F 38.5 °F 76% 29.85 in 10.0 mi WNW 16.1 mph 24.2 mph N/A   Overcast
10:35 AM 45.5 °F 38.3 °F 37.9 °F 75% 29.86 in 10.0 mi WNW 17.3 mph - N/A   Overcast
10:55 AM 45.7 °F 38.3 °F 37.8 °F 74% 29.86 in 10.0 mi WNW 18.4 mph 23.0 mph N/A   Overcast
11:15 AM 45.5 °F 39.2 °F 38.5 °F 76% 29.87 in 10.0 mi WNW 13.8 mph 21.9 mph N/A   Overcast
11:35 AM 45.7 °F 39.1 °F 39.0 °F 78% 29.87 in 10.0 mi West 15.0 mph 19.6 mph N/A   Overcast
11:55 AM 46.2 °F 39.3 °F 40.1 °F 79% 29.87 in 7.0 mi WNW 17.3 mph 21.9 mph N/A   Overcast
12:15 PM 48.0 °F - 40.5 °F 75% 29.87 in 10.0 mi WNW 15.0 mph 23.0 mph N/A   Overcast
12:35 PM 47.1 °F - 40.8 °F 79% 29.88 in 10.0 mi WNW 17.3 mph 23.0 mph N/A   Overcast
12:55 PM 47.7 °F - 40.1 °F 75% 29.88 in 10.0 mi WNW 17.3 mph 24.2 mph N/A   Overcast
1:15 PM 46.9 °F - 38.8 °F 73% 29.88 in 10.0 mi WNW 17.3 mph 21.9 mph N/A   Overcast
1:35 PM 46.6 °F - 39.2 °F 75% 29.89 in 10.0 mi WNW 13.8 mph 23.0 mph N/A   Overcast
1:55 PM 47.3 °F - 39.7 °F 75% 29.89 in 10.0 mi WNW 16.1 mph 20.7 mph N/A   Overcast
2:15 PM 49.5 °F - 40.8 °F 72% 29.89 in 10.0 mi WNW 17.3 mph 26.5 mph N/A   Overcast
2:35 PM 48.0 °F - 40.3 °F 75% 29.89 in 10.0 mi WNW 12.7 mph 20.7 mph N/A   Overcast
3:15 PM 47.3 °F - 39.4 °F 74% 29.90 in 10.0 mi WNW 17.3 mph 20.7 mph N/A   Overcast
3:35 PM 48.4 °F - 39.7 °F 72% 29.89 in 10.0 mi NW 16.1 mph 27.6 mph N/A   Overcast
3:55 PM 48.4 °F - 39.6 °F 72% 29.90 in 10.0 mi West 17.3 mph - N/A   Overcast
4:15 PM 47.8 °F - 39.2 °F 72% 29.90 in 10.0 mi NW 16.1 mph 21.9 mph N/A   Overcast
4:55 PM 47.3 °F - 39.2 °F 73% 29.91 in 10.0 mi WNW 13.8 mph - N/A   Overcast
5:15 PM 47.3 °F - 39.7 °F 75% 29.91 in 10.0 mi WNW 12.7 mph - N/A   Overcast
5:35 PM 47.1 °F - 39.4 °F 74% 29.91 in 10.0 mi WNW 11.5 mph 21.9 mph N/A   Overcast
5:55 PM 47.5 °F - 39.0 °F 72% 29.91 in 10.0 mi WNW 9.2 mph - N/A   Overcast
6:15 PM 47.5 °F - 39.6 °F 74% 29.91 in 10.0 mi WNW 12.7 mph - N/A   Overcast
6:35 PM 47.5 °F - 39.2 °F 73% 29.92 in 10.0 mi WNW 13.8 mph - N/A   Overcast
6:55 PM 47.3 °F - 39.4 °F 74% 29.92 in 10.0 mi WNW 11.5 mph - N/A   Overcast
7:15 PM 47.3 °F - 39.4 °F 74% 29.92 in 10.0 mi WNW 12.7 mph - N/A   Overcast
7:35 PM 46.8 °F - 39.6 °F 76% 29.92 in 10.0 mi WNW 10.4 mph - N/A   Overcast
7:55 PM 46.6 °F - 39.6 °F 77% 29.92 in 10.0 mi WNW 11.5 mph - N/A   Overcast
8:15 PM 46.6 °F - 39.7 °F 77% 29.93 in 10.0 mi West 9.2 mph - N/A   Overcast
8:35 PM 46.4 °F 42.9 °F 39.9 °F 78% 29.93 in 10.0 mi West 6.9 mph - N/A   Overcast
8:55 PM 46.4 °F 42.4 °F 39.9 °F 78% 29.93 in 10.0 mi West 8.1 mph - N/A   Overcast
9:15 PM 45.9 °F 42.3 °F 40.1 °F 80% 29.94 in 10.0 mi West 6.9 mph - N/A   Overcast
9:35 PM 46.0 °F 42.5 °F 40.3 °F 80% 29.94 in 10.0 mi West 6.9 mph - N/A   Overcast
9:55 PM 45.9 °F 42.9 °F 41.0 °F 83% 29.94 in 10.0 mi West 5.8 mph - N/A   Overcast
10:15 PM 46.2 °F 41.7 °F 41.0 °F 82% 29.94 in 10.0 mi West 9.2 mph - N/A   Overcast
10:35 PM 46.2 °F 43.3 °F 41.0 °F 82% 29.95 in 10.0 mi West 5.8 mph - N/A   Overcast
10:55 PM 46.0 °F 43.1 °F 41.2 °F 83% 29.94 in 10.0 mi West 5.8 mph - N/A   Overcast
11:15 PM 45.9 °F 43.6 °F 41.4 °F 84% 29.94 in 10.0 mi West 4.6 mph - N/A   Overcast
11:35 PM 45.9 °F 43.6 °F 41.2 °F 84% 29.94 in 10.0 mi West 4.6 mph - N/A   Overcast
11:55 PM 46.0 °F 42.5 °F 41.0 °F 83% 29.94 in 10.0 mi West 6.9 mph - N/A   Overcast